[[{"header":{"parameterUnit":"m.s-1","parameterCategory":1,"la1":30.2991,"la2":30.254,"lo1":-89.0895,"lo2":-89.0444,"dy":0.0017,"dx":0.0017,"nx":28,"ny":28,"refTime":"2025-03-14T21:00:00:Z","depth":0,"parameterNumber":2,"parameterNumberName":"U-component_of_WINDS"},"data":[0,0,0,0,0,0,0,0,0,0,0,0,0,0,0,0,0,0,0,0,0,0,0,0,0,0,0,0,0,0,0,0,0,0,0,0,0,0,0,0,0,0,0,0,0,0,0,0,0,0,0,0,0,0,0,0,0,0,-3.4034,-3.4035,0,-3.4103,-3.4104,-3.4105,-3.4088,-3.4087,-3.4085,-3.4084,-3.4154,-3.4157,-3.416,0,0,0,0,0,0,0,0,0,0,0,0,0,-3.3888,-3.3891,-3.4034,-3.4035,-3.4036,-3.4103,-3.4104,-3.4105,-3.4088,-3.4087,-3.4085,-3.4084,-3.4153,-3.4156,-3.416,0,0,0,0,0,0,0,0,0,0,0,0,0,-3.3954,-3.3892,-3.4034,-3.4036,-3.4037,-3.4103,-3.4104,-3.4105,-3.4089,-3.4087,-3.4085,-3.4083,-3.4152,-3.4156,-3.4161,-3.4229,0,0,-3.4175,-3.4177,0,0,0,0,0,0,0,0,-3.395,-3.3959,-3.4035,-3.4036,-3.4037,-3.4085,-3.4078,-3.4147,-3.4089,-3.4069,-3.4084,-3.4082,-3.4132,-3.4139,-3.4156,-3.4232,-3.4235,-3.4175,-3.4178,-3.418,-3.4181,0,0,0,0,0,0,0,-3.3945,-3.3956,-3.4061,-3.4036,-3.4037,-3.4033,-3.404,-3.4091,-3.4111,-3.4071,-3.407,-3.4078,-3.4133,-3.4151,-3.4157,-3.4236,-3.4175,-3.4179,-3.4182,-3.4184,-3.4372,-3.4374,0,0,0,0,0,0,-3.394,-3.3952,-3.4059,-3.4064,-3.3988,-3.4037,-3.4045,-3.4072,-3.411,-3.4114,-3.408,-3.4077,-3.4144,-3.4152,-3.416,-3.4242,-3.418,-3.4184,-3.4187,-3.437,-3.4373,-3.4375,0,0,0,0,0,0,-3.3937,-3.395,-3.4056,-3.4008,-3.4021,-3.4042,-3.4072,-3.4074,-3.4093,-3.4117,-3.4121,-3.4095,-3.4143,-3.4153,-3.4212,-3.4244,-3.4186,-3.4191,-3.4367,-3.4371,-3.4374,-3.4406,0,0,0,0,0,0,-3.3933,-3.3949,-3.3975,-3.4008,-3.4024,-3.4108,-3.4074,-3.4077,-3.4101,-3.4098,-3.4133,-3.4136,-3.4142,-3.4205,-3.4217,-3.4249,-3.4194,-3.4365,-3.4369,-3.4373,-3.4402,-3.441,-3.4417,0,0,0,0,0,-3.3928,-3.3981,-3.3976,-3.3989,-3.4057,-3.411,-3.4118,-3.4124,-3.4103,-3.413,-3.4146,-3.4135,-3.4239,-3.4211,-3.4224,-3.4258,-3.4362,-3.4368,-3.4372,-3.4399,-3.4409,-3.4417,0,0,0,0,0,0,-3.395,-3.3985,-3.398,-3.4046,-3.4075,-3.4107,-3.414,-3.4134,-3.4169,-3.4165,-3.4171,-3.4179,-3.4239,-3.4255,-3.4223,-3.4327,-3.4298,-3.4305,-3.4314,-3.4323,-3.433,-3.4324,-3.4198,0,0,0,0,0,-3.3963,-3.4003,-3.4032,-3.4087,-3.4102,-3.4119,-3.4142,-3.4144,-3.4174,-3.4186,-3.4206,-3.4235,-3.4274,-3.43,-3.4337,-3.4406,-3.4412,-3.4436,-3.4443,-3.4449,-3.4455,-3.4491,-3.4502,-3.4392,-3.4391,-3.4391,0,0,-3.3989,-3.4014,-3.4038,-3.4092,-3.4115,-3.4156,-3.4129,-3.4173,-3.4204,-3.4193,-3.4249,-3.4265,-3.4298,-3.4362,-3.4391,-3.4377,-3.4487,-3.4455,-3.446,-3.4462,-3.4498,-3.4508,-3.4517,-3.4395,-3.4394,-3.4394,0,0,-3.4058,-3.4081,-3.4129,-3.4153,-3.4187,-3.4198,-3.421,-3.4243,-3.4253,-3.431,-3.4303,-3.4339,-3.4407,-3.443,-3.4451,-3.4531,-3.4522,-3.4543,-3.458,-3.4616,-3.4624,-3.4632,-3.4659,-3.4669,-3.4549,-3.4549,-3.4549,0,-3.4086,-3.4148,-3.4155,-3.42,-3.4224,-3.4217,-3.4265,-3.4288,-3.4333,-3.4349,-3.4334,-3.4418,-3.444,-3.4509,-3.4528,-3.4546,-3.4559,-3.4538,-3.4623,-3.463,-3.4638,-3.4664,-3.4674,-3.4551,-3.4551,-3.4551,-3.4551,0,-3.418,-3.4223,-3.4258,-3.4302,-3.433,-3.4377,-3.4391,-3.4418,-3.4419,-3.4432,-3.449,-3.4516,-3.4559,-3.4576,-3.4576,-3.4645,-3.4635,-3.4621,-3.4592,-3.465,-3.4674,-3.4685,-3.4554,-3.4554,-3.4553,-3.4553,0,0,-3.4262,-3.4311,-3.4323,-3.4343,-3.4382,-3.4415,-3.4462,-3.4504,-3.4527,-3.4559,-3.4598,-3.4656,-3.4643,-3.4667,-3.4671,-3.4703,-3.4762,-3.4685,-3.4686,-3.4697,-3.4838,-3.4847,-3.4858,-3.4758,-3.476,-3.4762,-3.4835,0,-3.4333,-3.4416,-3.4424,-3.4497,-3.4537,-3.4532,-3.4572,-3.46,-3.4614,-3.465,-3.4665,-3.4705,-3.4686,-3.4701,-3.4732,-3.4748,-3.4791,-3.4744,-3.4793,-3.4795,-3.4783,-3.4871,-3.488,-3.4948,-3.4845,-3.4846,-3.4847,0,-3.4426,-3.4461,-3.4539,-3.4572,-3.4589,-3.4625,-3.4664,-3.4699,-3.4731,-3.4738,-3.4766,-3.4766,-3.4814,-3.4785,-3.485,-3.4818,-3.484,-3.4851,-3.4854,-3.4857,-3.4823,-3.4875,-3.497,-3.4979,-3.4863,-3.4861,-3.486,0,-3.4477,-3.4543,-3.4598,-3.4616,-3.4656,-3.4682,-3.47,-3.473,-3.4755,-3.4789,-3.4805,-3.4845,-3.4867,-3.4898,-3.4908,-3.4886,-3.4973,-3.4945,-3.498,-3.498,-3.4997,-3.4995,-3.5095,-3.5014,-3.5014,-3.5014,-3.5013,0,-3.4554,-3.4601,-3.4621,-3.4655,-3.4708,-3.4718,-3.477,-3.4786,-3.4813,-3.485,-3.4849,-3.4883,-3.4896,-3.4932,-3.4941,-3.4994,-3.5004,-3.5011,-3.5012,-3.501,-3.5009,-3.5022,-3.5017,-3.5016,-3.5016,-3.5015,-3.5015,0,-3.4618,-3.4634,-3.4693,-3.4727,-3.4737,-3.4774,-3.4803,-3.4835,-3.4849,-3.4896,-3.4907,-3.4929,-3.4972,-3.4986,-3.5038,-3.5044,-3.5105,-3.5103,-3.5094,-3.5094,-3.5127,-3.5123,-3.5237,-3.5252,-3.5163,-3.5164,-3.5165,0,-3.4665,-3.4701,-3.4739,-3.4764,-3.4783,-3.4823,-3.4848,-3.486,-3.4886,-3.4926,-3.4953,-3.4996,-3.503,-3.51,-3.512,-3.5159,-3.5158,-3.5195,-3.5163,-3.516,-3.5156,-3.5153,-3.5156,-3.52,-3.5201,-3.5202,-3.5202,0,-3.4746,-3.4752,-3.4789,-3.4829,-3.486,-3.4892,-3.4922,-3.4943,-3.4959,-3.4989,-3.5033,-3.506,-3.5113,-3.5155,-3.5196,-3.5215,-3.5211,-3.5213,-3.5222,-3.5219,-3.5211,-3.5214,-3.5108,-3.5209,-3.5208,-3.5208,-3.5208,-3.5207,-3.4802,-3.4834,-3.4865,-3.4907,-3.4931,-3.496,-3.4992,-3.5011,-3.5048,-3.5092,-3.5097,-3.5144,-3.5176,-3.523,-3.5251,-3.5288,-3.5277,-3.5292,-3.5296,-3.5299,-3.53,-3.5208,-3.5296,-3.5296,-3.5296,-3.5295,-3.5295,0,-3.4881,-3.4902,-3.494,-3.4983,-3.5016,-3.5011,-3.5045,-3.5072,-3.5114,-3.5144,-3.5178,-3.5229,-3.527,-3.5294,-3.5336,-3.5361,-3.536,-3.5371,-3.5368,-3.5372,-3.5308,-3.5295,-3.5371,-3.5371,-3.5371,-3.5371,-3.5371,-3.5371,-3.4927,-3.498,-3.499,-3.5056,-3.5076,-3.5122,-3.5142,-3.5169,-3.5193,-3.525,-3.5284,-3.53,-3.5327,-3.5371,-3.5408,-3.5414,-3.5429,-3.5441,-3.5445,-3.5385,-3.5377,-3.5369,-3.5356,-3.5444,-3.5444,-3.5506,-3.5507,-3.5507]},{"header":{"parameterUnit":"m.s-1","parameterCategory":1,"la1":30.2991,"la2":30.254,"lo1":-89.0895,"lo2":-89.0444,"dy":0.0017,"dx":0.0017,"nx":28,"ny":28,"refTime":"2025-03-14T21:00:00:Z","depth":0,"parameterNumber":3,"parameterNumberName":"V-component_of_WINDS"},"data":[0,0,0,0,0,0,0,0,0,0,0,0,0,0,0,0,0,0,0,0,0,0,0,0,0,0,0,0,0,0,0,0,0,0,0,0,0,0,0,0,0,0,0,0,0,0,0,0,0,0,0,0,0,0,0,0,0,0,3.4332,3.4332,0,3.4369,3.437,3.437,3.4389,3.4389,3.4389,3.4389,3.4427,3.4428,3.4429,0,0,0,0,0,0,0,0,0,0,0,0,0,3.4278,3.4279,3.4332,3.4332,3.4333,3.4369,3.437,3.437,3.4389,3.4389,3.4389,3.4389,3.4427,3.4428,3.4429,0,0,0,0,0,0,0,0,0,0,0,0,0,3.4307,3.4279,3.4332,3.4347,3.4348,3.4369,3.437,3.4371,3.4389,3.4389,3.4389,3.4389,3.4427,3.4428,3.4429,3.4438,0,0,3.4434,3.4435,0,0,0,0,0,0,0,0,3.4305,3.4309,3.4344,3.4346,3.4347,3.4375,3.4365,3.4393,3.4389,3.4374,3.4389,3.4389,3.441,3.4413,3.442,3.444,3.4442,3.4434,3.4435,3.4436,3.4436,0,0,0,0,0,0,0,3.4303,3.4308,3.4347,3.4344,3.4347,3.4352,3.4356,3.437,3.4391,3.4375,3.4376,3.4381,3.4411,3.4418,3.4421,3.4442,3.4434,3.4435,3.4436,3.4437,3.4476,3.4476,0,0,0,0,0,0,3.4299,3.4306,3.4345,3.4348,3.4326,3.4353,3.4358,3.4366,3.4391,3.4395,3.4381,3.4381,3.4416,3.4419,3.4422,3.4436,3.4436,3.4437,3.4438,3.4476,3.4476,3.4476,0,0,0,0,0,0,3.4298,3.4302,3.4344,3.4327,3.4333,3.4354,3.4363,3.4367,3.4374,3.4395,3.4399,3.4384,3.4416,3.442,3.4435,3.4438,3.4438,3.4439,3.4475,3.4476,3.4476,3.4464,0,0,0,0,0,0,3.4296,3.4302,3.4304,3.4327,3.4334,3.4356,3.4363,3.4367,3.4377,3.4378,3.44,3.4403,3.4416,3.4433,3.4436,3.444,3.444,3.4475,3.4476,3.4476,3.4464,3.4463,3.4463,0,0,0,0,0,3.4294,3.4299,3.4304,3.4309,3.4338,3.4356,3.4359,3.4374,3.4377,3.4381,3.4395,3.4403,3.4437,3.4434,3.4438,3.4442,3.4475,3.4475,3.4476,3.4464,3.4464,3.4463,0,0,0,0,0,0,3.4275,3.4302,3.4308,3.432,3.4336,3.4359,3.4364,3.4373,3.4387,3.4388,3.4405,3.441,3.4424,3.4435,3.4431,3.4454,3.4457,3.4458,3.4447,3.4446,3.4446,3.4443,3.4442,0,0,0,0,0,3.4272,3.4284,3.4307,3.4316,3.4323,3.4342,3.435,3.4361,3.4377,3.4383,3.4399,3.4414,3.4429,3.4438,3.4453,3.4466,3.4472,3.4471,3.447,3.447,3.4471,3.4482,3.4482,3.4477,3.4477,3.4477,0,0,3.4266,3.4283,3.4289,3.4312,3.4325,3.4338,3.4347,3.436,3.437,3.4385,3.4401,3.4413,3.4432,3.4447,3.4454,3.4456,3.4474,3.447,3.447,3.4471,3.4482,3.4483,3.4483,3.4477,3.4477,3.4477,0,0,3.4263,3.4275,3.4285,3.4299,3.4319,3.4332,3.4335,3.4357,3.4366,3.4382,3.4395,3.4408,3.4432,3.4446,3.4456,3.4462,3.447,3.4466,3.4464,3.4474,3.4474,3.4475,3.4479,3.448,3.4467,3.4467,3.4467,0,3.4253,3.4272,3.4289,3.4302,3.4313,3.4329,3.434,3.4352,3.4376,3.4384,3.4386,3.4419,3.4432,3.4452,3.4454,3.4461,3.4466,3.4463,3.4473,3.4474,3.4474,3.4478,3.448,3.4466,3.4466,3.4466,3.4466,0,3.4261,3.4274,3.428,3.4304,3.4316,3.4327,3.4347,3.4357,3.4367,3.4381,3.4399,3.4416,3.4436,3.4441,3.445,3.4464,3.4465,3.4469,3.4473,3.4474,3.4478,3.448,3.4465,3.4466,3.4466,3.4466,0,0,3.4244,3.4279,3.4281,3.4294,3.4319,3.433,3.4344,3.4364,3.4373,3.439,3.4403,3.4425,3.4431,3.4442,3.4454,3.4463,3.4469,3.4467,3.4468,3.4468,3.4487,3.4484,3.4486,3.4475,3.4475,3.4476,3.4486,0,3.4245,3.427,3.4287,3.4306,3.4321,3.4337,3.435,3.4367,3.4381,3.4396,3.4411,3.4427,3.4433,3.444,3.445,3.4466,3.4473,3.4465,3.4489,3.4489,3.4484,3.4487,3.4483,3.4492,3.4488,3.4488,3.4488,0,3.4249,3.4267,3.4287,3.4314,3.4321,3.4331,3.4353,3.4367,3.4388,3.4397,3.4412,3.4425,3.4442,3.4444,3.4468,3.4463,3.4474,3.4483,3.4484,3.4487,3.4489,3.4492,3.4495,3.4497,3.4491,3.449,3.449,0,3.4237,3.4266,3.4283,3.4293,3.4324,3.4331,3.4345,3.4366,3.4378,3.4397,3.4406,3.4426,3.4437,3.4454,3.4472,3.4471,3.4496,3.4499,3.4505,3.4505,3.451,3.4509,3.4516,3.4515,3.4515,3.4515,3.4515,0,3.4236,3.4249,3.4279,3.4289,3.4305,3.4325,3.434,3.4354,3.4374,3.4389,3.4404,3.4418,3.4441,3.4458,3.4472,3.4492,3.4496,3.4505,3.4509,3.4505,3.4504,3.4512,3.4512,3.4515,3.4515,3.4515,3.4515,0,3.4225,3.4245,3.4265,3.4294,3.4302,3.4312,3.4337,3.4349,3.4365,3.4383,3.4389,3.4414,3.4435,3.4455,3.4482,3.4492,3.4513,3.4517,3.4506,3.4508,3.4514,3.4514,3.4528,3.4531,3.4526,3.4526,3.4526,0,3.4224,3.4234,3.4265,3.4276,3.429,3.4307,3.4321,3.4342,3.4355,3.4382,3.4391,3.4414,3.4433,3.4466,3.4487,3.4509,3.4515,3.4518,3.4518,3.4514,3.4517,3.4517,3.4519,3.4518,3.4518,3.4518,3.4518,0,3.422,3.4231,3.4249,3.4272,3.4288,3.4307,3.4326,3.4335,3.436,3.4374,3.4397,3.4412,3.4442,3.4465,3.449,3.4505,3.4516,3.4518,3.4521,3.4517,3.451,3.4516,3.4506,3.4517,3.4517,3.4517,3.4517,3.4517,3.4215,3.4226,3.4251,3.4272,3.4289,3.4308,3.4321,3.434,3.4359,3.4385,3.4397,3.442,3.4444,3.448,3.4495,3.4514,3.4516,3.452,3.4521,3.4522,3.4522,3.4507,3.4518,3.4518,3.4518,3.4518,3.4518,0,3.4214,3.4231,3.425,3.4278,3.4295,3.4306,3.4329,3.4343,3.4363,3.4385,3.4404,3.4432,3.4455,3.4479,3.4504,3.4515,3.4521,3.4521,3.452,3.4524,3.4518,3.4513,3.4516,3.4516,3.4516,3.4516,3.4516,3.4516,3.4215,3.4236,3.4249,3.428,3.4297,3.4321,3.4333,3.4351,3.4369,3.4399,3.4419,3.4435,3.4458,3.4486,3.4508,3.4515,3.4524,3.4523,3.4531,3.4524,3.4524,3.4524,3.452,3.4524,3.4524,3.4536,3.4536,3.4536]}]]